GW6627 Weather Reports


time (UTC)temp
C
wind
direction
speed
KPH
gust
KPH
rain 1hr
cm
rain 24hr
cm
rain mn
cm
humidity
%
barometer
mb
20260507132947 11 120 0.0 0.0 0.00 0.00 0.00 95 1016.2
20260507132442 11 85 0.0 0.0 0.00 0.00 0.00 95 1016.2
20260507131938 11 70 0.0 0.0 0.00 0.00 0.00 95 1016.2
20260507131436 11 125 0.0 0.0 0.00 0.00 0.00 95 1016.2
20260507130933 11 53 0.0 0.0 0.00 0.00 0.00 95 1016.2
20260507130430 10 70 0.0 0.0 0.00 0.00 0.00 95 1016.0
20260507125929 10 91 0.0 0.0 0.00 0.00 0.00 94 1016.1
20260507125426 10 70 0.0 0.0 0.00 0.00 0.00 94 1016.0
20260507124923 10 136 0.0 0.0 0.00 0.00 0.00 94 1015.9
20260507124419 10 136 0.0 0.0 0.00 0.00 0.00 94 1015.9
20260507123918 11 120 0.0 0.0 0.00 0.00 0.00 94 1016.0
20260507123415 11 120 0.0 0.0 0.00 0.00 0.00 94 1016.0
20260507122911 11 117 0.0 0.0 0.00 0.00 0.00 94 1015.8
20260507122406 10 165 0.0 0.0 0.00 0.00 0.00 94 1015.8
20260507121903 10 204 0.0 0.0 0.00 0.00 0.00 94 1015.9
20260507121358 10 143 0.0 0.0 0.00 0.00 0.00 93 1015.8
20260507120855 10 144 0.0 0.0 0.00 0.00 0.00 93 1015.9
20260507120352 10 143 0.0 0.0 0.00 0.00 0.00 93 1015.6
20260507115848 11 101 0.0 0.0 0.00 0.00 0.00 93 1015.7
20260507115343 11 195 0.0 0.0 0.00 0.00 0.00 93 1015.8
20260507114839 11 195 0.0 0.0 0.00 0.00 0.00 93 1015.6
20260507114337 11 196 0.0 0.0 0.00 0.00 0.00 93 1015.8
20260507113834 11 196 0.0 0.0 0.00 0.00 0.00 92 1015.8
20260507113331 11 116 0.0 0.0 0.00 0.00 0.00 92 1015.9
20260507112829 11 173 0.0 0.0 0.00 0.00 0.00 92 1015.9
20260507112325 11 173 0.0 0.0 0.00 0.00 0.00 92 1016.0
20260507111823 11 201 0.0 0.0 0.00 0.00 0.00 92 1016.2
20260507111320 11 201 0.0 0.0 0.00 0.00 0.00 92 1016.1
20260507110816 11 3 0.0 0.0 0.00 0.00 0.00 92 1016.2
20260507110312 12 40 0.0 0.0 0.00 0.00 0.00 92 1016.1
20260507105809 12 69 0.0 0.0 0.00 0.00 0.00 92 1016.1
20260507105307 12 70 0.0 0.0 0.00 0.00 0.00 92 1016.2
20260507104803 12 211 0.0 0.0 0.00 0.00 0.00 92 1016.2
20260507104259 12 21 0.0 0.0 0.00 0.00 0.00 92 1016.1
20260507103755 11 289 0.0 0.0 0.00 0.00 0.00 92 1016.2
20260507103251 12 83 0.0 0.0 0.00 0.00 0.00 92 1016.2
20260507102748 12 69 0.0 0.0 0.00 0.00 0.00 92 1016.5
20260507102245 12 26 0.0 0.0 0.00 0.00 0.00 92 1016.3
20260507101741 12 35 0.0 0.0 0.00 0.00 0.00 92 1016.2
20260507101236 12 68 0.0 0.0 0.00 0.00 0.00 92 1016.4
20260507100734 12 143 0.0 0.0 0.00 0.00 0.00 92 1016.5
20260507100232 12 152 0.0 0.0 0.00 0.00 0.00 92 1016.5
20260507095730 12 222 0.0 0.0 0.00 0.00 0.00 92 1016.5
20260507095226 12 217 0.0 0.0 0.00 0.00 0.00 91 1016.5
20260507094723 12 236 0.0 0.0 0.00 0.00 0.00 91 1016.3
20260507094220 12 190 0.0 0.0 0.00 0.00 0.00 90 1016.6
20260507093717 12 191 0.0 0.0 0.00 0.00 0.00 90 1016.7
20260507093215 12 94 0.0 0.0 0.00 0.00 0.00 89 1016.5
20260507092712 12 87 0.0 0.0 0.00 0.00 0.00 90 1016.6
20260507092208 13 320 0.0 1.6 0.00 0.00 0.00 90 1016.5
20260507091705 13 10 0.0 1.6 0.00 0.00 0.00 90 1016.6
20260507091201 13 313 0.0 1.6 0.00 0.00 0.00 91 1016.7
20260507090657 13 344 0.0 1.6 0.00 0.00 0.00 91 1016.7
20260507090154 13 6 1.6 1.6 0.00 0.00 0.00 91 1016.8
20260507085651 13 335 1.6 1.6 0.00 0.00 0.00 92 1016.7
20260507085148 13 324 0.0 0.0 0.00 0.00 0.00 92 1016.9
20260507084645 13 325 0.0 1.6 0.00 0.00 0.00 92 1016.8
20260507084141 13 260 0.0 0.0 0.00 0.00 0.00 92 1016.9
20260507083638 12 239 0.0 1.6 0.00 0.00 0.00 92 1017.1
20260507083135 12 238 0.0 0.0 0.00 0.00 0.00 91 1017.0
20260507082631 12 238 0.0 0.0 0.00 0.00 0.00 91 1017.1
20260507082127 12 237 0.0 0.0 0.00 0.00 0.00 91 1017.0
20260507081624 12 240 0.0 0.0 0.00 0.00 0.00 91 1017.2
20260507081121 13 168 0.0 0.0 0.00 0.00 0.00 90 1017.0
20260507080617 13 127 0.0 0.0 0.00 0.00 0.00 90 1017.3
20260507080114 13 67 0.0 0.0 0.00 0.00 0.00 90 1017.0
20260507075614 13 25 1.6 1.6 0.00 0.00 0.00 90 1017.3
20260507075111 13 69 0.0 1.6 0.00 0.00 0.00 90 1017.2
20260507074608 13 114 0.0 1.6 0.00 0.00 0.00 89 1017.3
20260507074106 13 31 1.6 3.2 0.00 0.00 0.00 89 1017.1
20260507073602 13 58 0.0 0.0 0.00 0.00 0.00 89 1017.3
20260507073058 13 126 0.0 0.0 0.00 0.00 0.00 89 1017.4
20260507072556 13 121 0.0 0.0 0.00 0.00 0.00 89 1017.4
20260507072053 13 70 0.0 1.6 0.00 0.00 0.00 89 1017.4
20260507071550 13 23 0.0 0.0 0.00 0.00 0.00 89 1017.6
20260507071047 13 97 0.0 0.0 0.00 0.00 0.00 89 1017.5
20260507070544 13 141 0.0 0.0 0.00 0.00 0.00 89 1017.5
20260507070041 13 43 0.0 0.0 0.00 0.00 0.00 89 1017.5
20260507065537 13 34 1.6 1.6 0.00 0.00 0.00 89 1017.5
20260507065034 13 40 1.6 3.2 0.00 0.00 0.00 89 1017.4
20260507064532 13 92 0.0 1.6 0.00 0.00 0.00 89 1017.5
20260507064031 13 57 3.2 3.2 0.00 0.00 0.00 89 1017.5
20260507063527 13 31 1.6 3.2 0.00 0.00 0.00 89 1017.4
20260507063025 13 82 0.0 1.6 0.00 0.00 0.00 89 1017.2
20260507062521 14 49 1.6 1.6 0.00 0.00 0.00 89 1017.4
20260507062019 13 50 1.6 3.2 0.00 0.00 0.00 89 1017.4
20260507061517 13 47 1.6 1.6 0.00 0.00 0.00 88 1017.3
20260507061014 13 68 0.0 1.6 0.00 0.00 0.00 88 1017.5
20260507060512 13 75 0.0 1.6 0.00 0.00 0.00 88 1017.3
20260507060009 13 86 0.0 1.6 0.00 0.00 0.00 88 1017.6
20260507055503 13 73 0.0 1.6 0.00 0.00 0.00 88 1017.5
20260507055000 13 61 0.0 1.6 0.00 0.00 0.00 88 1017.5
20260507054456 13 105 0.0 1.6 0.00 0.00 0.00 89 1017.5
20260507053953 13 49 1.6 1.6 0.00 0.00 0.00 88 1017.5
20260507053451 13 52 0.0 1.6 0.00 0.00 0.00 88 1017.4
20260507052949 13 68 0.0 1.6 0.00 0.00 0.00 88 1017.7
20260507052447 13 38 1.6 3.2 0.00 0.00 0.00 88 1017.7
20260507051943 13 93 0.0 0.0 0.00 0.00 0.00 87 1017.6
20260507051441 14 90 0.0 0.0 0.00 0.00 0.00 87 1017.5
20260507050938 14 90 0.0 1.6 0.00 0.00 0.00 87 1017.5
20260507050434 14 90 0.0 0.0 0.00 0.00 0.00 87 1017.4
20260507045931 14 82 0.0 0.0 0.00 0.00 0.00 87 1017.3
20260507045428 14 80 0.0 0.0 0.00 0.00 0.00 86 1017.2
20260507044925 14 88 1.6 1.6 0.00 0.00 0.00 86 1017.2
20260507044422 14 98 0.0 1.6 0.00 0.00 0.00 86 1017.4
20260507043918 14 105 0.0 0.0 0.00 0.00 0.00 86 1017.3
20260507043414 15 102 0.0 0.0 0.00 0.00 0.00 85 1017.4
20260507042910 15 101 0.0 1.6 0.00 0.00 0.00 85 1017.4
20260507042407 15 222 0.0 0.0 0.00 0.00 0.00 85 1017.2
20260507041903 15 226 0.0 0.0 0.00 0.00 0.00 84 1017.5
20260507041400 15 236 0.0 0.0 0.00 0.00 0.00 84 1017.5
20260507040857 15 237 0.0 1.6 0.00 0.00 0.00 84 1017.3
20260507040353 15 226 0.0 0.0 0.00 0.00 0.00 84 1017.3
20260507035849 15 228 0.0 0.0 0.00 0.00 0.00 84 1017.2
20260507035345 15 240 1.6 1.6 0.00 0.00 0.00 83 1017.3
20260507034843 15 169 0.0 0.0 0.00 0.00 0.00 83 1017.0
20260507034339 15 113 0.0 0.0 0.00 0.00 0.00 83 1017.1
20260507033837 15 100 0.0 0.0 0.00 0.00 0.00 82 1016.9
20260507033335 15 175 0.0 1.6 0.00 0.00 0.00 82 1016.9
20260507032832 15 206 0.0 1.6 0.00 0.00 0.00 82 1016.8
20260507032328 15 341 1.6 1.6 0.00 0.00 0.00 81 1017.0
20260507031824 15 347 0.0 1.6 0.00 0.00 0.00 81 1016.9
20260507031321 15 216 0.0 1.6 0.00 0.00 0.00 81 1016.9
20260507030818 15 254 0.0 1.6 0.00 0.00 0.00 80 1016.8
20260507030316 16 231 0.0 1.6 0.00 0.00 0.00 80 1016.8
20260507025812 16 218 0.0 3.2 0.00 0.00 0.00 81 1016.7
20260507025309 16 221 1.6 1.6 0.00 0.00 0.00 81 1016.5
20260507024808 16 246 0.0 3.2 0.00 0.00 0.00 80 1016.5
20260507024304 16 277 3.2 4.8 0.00 0.00 0.00 79 1016.5
20260507023800 16 220 1.6 1.6 0.00 0.00 0.00 78 1016.7
20260507023257 16 211 0.0 1.6 0.00 0.00 0.00 78 1016.5
20260507022754 17 300 1.6 3.2 0.00 0.00 0.00 77 1016.5
20260507022250 17 223 0.0 1.6 0.00 0.00 0.00 76 1016.3
20260507021747 17 242 4.8 4.8 0.00 0.00 0.00 74 1016.3
20260507021242 17 257 1.6 3.2 0.00 0.00 0.00 74 1016.3
20260507020741 17 257 1.6 3.2 0.00 0.00 0.00 71 1016.3
20260507020237 18 227 3.2 4.8 0.00 0.00 0.00 69 1016.3
20260507015735 18 204 1.6 6.4 0.00 0.00 0.00 67 1016.2
20260507015232 18 232 3.2 4.8 0.00 0.00 0.00 65 1016.2
20260507014728 18 249 3.2 6.4 0.00 0.00 0.00 63 1016.3
20260507014225 18 323 3.2 3.2 0.00 0.00 0.00 63 1016.1
20260507013721 19 237 3.2 4.8 0.00 0.00 0.00 62 1015.9
20260507013219 18 224 1.6 6.4 0.00 0.00 0.00 61 1016.0
20260507012716 19 253 4.8 11.3 0.00 0.00 0.00 59 1015.9
20260507012216 19 235 3.2 6.4 0.00 0.00 0.00 58 1016.1
20260507011714 20 233 4.8 6.4 0.00 0.00 0.00 57 1016.0
20260507011211 19 205 3.2 6.4 0.00 0.00 0.00 59 1015.9
20260507010710 20 233 3.2 6.4 0.00 0.00 0.00 58 1016.0
20260507010207 20 248 6.4 6.4 0.00 0.00 0.00 59 1015.8
20260507005704 20 244 3.2 11.3 0.00 0.00 0.00 58 1015.8
20260507005200 20 258 3.2 6.4 0.00 0.00 0.00 59 1015.9
20260507004657 20 242 6.4 14.5 0.00 0.00 0.00 59 1015.8
20260507004155 20 234 8.0 11.3 0.00 0.00 0.00 59 1015.8
20260507003651 20 254 8.0 11.3 0.00 0.00 0.00 60 1015.6
20260507003151 21 311 3.2 6.4 0.00 0.00 0.00 59 1015.8
20260507002648 21 248 3.2 6.4 0.00 0.00 0.00 59 1015.6
20260507002143 21 230 4.8 9.7 0.00 0.00 0.00 58 1015.7
20260507001640 21 256 9.7 11.3 0.00 0.00 0.00 59 1015.7
20260507001138 22 187 4.8 11.3 0.00 0.00 0.00 57 1015.7
20260507000634 22 286 3.2 9.7 0.00 0.00 0.00 58 1015.5
20260507000130 22 244 1.6 11.3 0.00 0.00 0.00 56 1015.4
20260506235627 23 272 4.8 11.3 0.00 0.00 0.00 53 1015.4
20260506235127 22 218 4.8 11.3 0.00 0.00 0.00 55 1015.3
20260506234625 23 187 4.8 6.4 0.00 0.00 0.00 53 1015.4
20260506234122 22 223 1.6 9.7 0.00 0.00 0.00 55 1015.3
20260506233619 22 193 4.8 6.4 0.00 0.00 0.00 55 1015.3
20260506233116 23 236 4.8 11.3 0.00 0.00 0.00 54 1015.4
20260506232612 22 311 3.2 9.7 0.00 0.00 0.00 54 1015.3
20260506232107 22 297 4.8 11.3 0.00 0.00 0.00 56 1015.4
20260506231605 23 262 6.4 6.4 0.00 0.00 0.00 53 1015.4
20260506231103 23 210 6.4 12.9 0.00 0.00 0.00 54 1015.5
20260506230559 23 237 3.2 6.4 0.00 0.00 0.00 52 1015.3
20260506230056 23 248 1.6 16.1 0.00 0.00 0.00 53 1015.6
20260506225553 23 285 6.4 9.7 0.00 0.00 0.00 53 1015.5
20260506225049 22 274 6.4 11.3 0.00 0.00 0.00 55 1015.5
20260506224547 23 339 6.4 9.7 0.00 0.00 0.00 52 1015.7
20260506224043 23 303 4.8 9.7 0.00 0.00 0.00 53 1015.6
20260506223539 23 263 6.4 9.7 0.00 0.00 0.00 56 1015.8
20260506223036 24 262 3.2 6.4 0.00 0.00 0.00 53 1015.9
20260506222533 23 202 4.8 6.4 0.00 0.00 0.00 56 1015.8
20260506222029 23 211 6.4 9.7 0.00 0.00 0.00 55 1015.8
20260506221526 23 323 4.8 6.4 0.00 0.00 0.00 54 1015.9
20260506221024 23 273 4.8 6.4 0.00 0.00 0.00 56 1016.0
20260506220520 23 228 6.4 9.7 0.00 0.00 0.00 55 1016.2
20260506220016 23 271 4.8 12.9 0.00 0.00 0.00 55 1015.9
20260506215513 23 235 3.2 12.9 0.00 0.00 0.00 58 1016.0
20260506215009 23 248 6.4 9.7 0.00 0.00 0.00 56 1015.9
20260506214506 23 249 3.2 6.4 0.00 0.00 0.00 54 1016.1
20260506214003 23 262 3.2 12.9 0.00 0.00 0.00 55 1016.1
20260506213501 23 250 6.4 9.7 0.00 0.00 0.00 55 1016.1
20260506212958 23 165 3.2 12.9 0.00 0.00 0.00 57 1016.3
20260506212454 24 218 6.4 12.9 0.00 0.00 0.00 54 1016.3
20260506211949 24 242 3.2 9.7 0.00 0.00 0.00 54 1016.5
20260506211445 23 234 6.4 9.7 0.00 0.00 0.00 56 1016.0
20260506210942 23 274 8.0 11.3 0.00 0.00 0.00 54 1016.5
20260506210438 23 278 3.2 9.7 0.00 0.00 0.00 56 1016.2
20260506205936 24 212 4.8 11.3 0.00 0.00 0.00 53 1016.2
20260506205432 24 254 3.2 11.3 0.00 0.00 0.00 55 1016.4
20260506204928 23 335 1.6 12.9 0.00 0.00 0.00 56 1016.6
20260506204426 23 264 3.2 14.5 0.00 0.00 0.00 55 1016.5
20260506203923 22 173 8.0 17.7 0.00 0.00 0.00 57 1016.6
20260506203420 23 279 3.2 12.9 0.00 0.00 0.00 55 1016.6
20260506202917 23 260 4.8 12.9 0.00 0.00 0.00 55 1016.5
20260506202414 22 269 3.2 11.3 0.00 0.00 0.00 56 1016.4
20260506201911 23 257 4.8 11.3 0.00 0.00 0.00 55 1016.7
20260506201409 24 204 3.2 6.4 0.00 0.00 0.00 52 1016.7
20260506200905 23 238 4.8 6.4 0.00 0.00 0.00 54 1016.7
20260506200401 23 252 8.0 11.3 0.00 0.00 0.00 55 1016.9
20260506195857 23 202 9.7 12.9 0.00 0.00 0.00 54 1016.7
20260506195355 23 229 6.4 11.3 0.00 0.00 0.00 55 1016.9
20260506194851 23 261 3.2 12.9 0.00 0.00 0.00 54 1017.1
20260506194348 23 254 6.4 12.9 0.00 0.00 0.00 54 1016.9
20260506193846 23 298 3.2 14.5 0.00 0.00 0.00 56 1017.0
20260506193342 23 241 4.8 11.3 0.00 0.00 0.00 54 1017.1
20260506192839 23 284 3.2 11.3 0.00 0.00 0.00 53 1017.1
20260506192336 23 250 4.8 12.9 0.00 0.00 0.00 55 1017.1
20260506191833 23 273 4.8 11.3 0.00 0.00 0.00 54 1017.3
20260506191329 22 287 4.8 11.3 0.00 0.00 0.00 54 1017.3
20260506190826 23 184 8.0 9.7 0.00 0.00 0.00 52 1017.3
20260506190322 22 258 6.4 12.9 0.00 0.00 0.00 51 1017.3
20260506185819 23 238 4.8 6.4 0.00 0.00 0.00 47 1017.5
20260506185316 22 208 6.4 6.4 0.00 0.00 0.00 48 1017.4
20260506184813 23 245 3.2 6.4 0.00 0.00 0.00 50 1017.5
20260506184311 23 292 1.6 3.2 0.00 0.00 0.00 48 1017.5
20260506183808 22 306 1.6 3.2 0.00 0.00 0.00 51 1017.7
20260506183303 22 254 1.6 4.8 0.00 0.00 0.00 49 1017.7
20260506182800 22 184 1.6 3.2 0.00 0.00 0.00 51 1017.8
20260506182257 21 220 3.2 4.8 0.00 0.00 0.00 54 1017.8
20260506181755 20 201 6.4 9.7 0.00 0.00 0.00 55 1017.8
20260506181253 20 241 6.4 9.7 0.00 0.00 0.00 55 1017.9
20260506180749 22 243 6.4 9.7 0.00 0.00 0.00 51 1018.1
20260506180245 21 250 1.6 4.8 0.00 0.00 0.00 54 1017.9
20260506175742 21 257 3.2 4.8 0.00 0.00 0.00 55 1018.1
20260506175239 21 281 3.2 4.8 0.00 0.00 0.00 55 1018.1
20260506174737 21 240 0.0 4.8 0.00 0.00 0.00 55 1018.1
20260506174233 20 104 1.6 3.2 0.00 0.00 0.00 57 1018.3
20260506173731 20 196 3.2 4.8 0.00 0.00 0.00 57 1018.3
20260506173227 21 214 3.2 4.8 0.00 0.00 0.00 54 1018.2
20260506172724 20 109 1.6 4.8 0.00 0.00 0.00 55 1018.3
20260506172221 20 194 1.6 3.2 0.00 0.00 0.00 55 1018.3
20260506171719 20 75 1.6 1.6 0.00 0.00 0.00 56 1018.2
20260506171216 20 157 1.6 4.8 0.00 0.00 0.00 56 1018.4
20260506170713 20 26 0.0 3.2 0.00 0.00 0.00 57 1018.4
20260506170210 20 72 1.6 3.2 0.00 0.00 0.00 57 1018.3
20260506165708 18 227 1.6 1.6 0.00 0.00 0.00 60 1018.4
20260506165204 19 333 3.2 4.8 0.00 0.00 0.00 59 1018.4
20260506164702 18 156 0.0 3.2 0.00 0.00 0.00 63 1018.4
20260506164159 18 223 3.2 3.2 0.00 0.00 0.00 61 1018.5
20260506163655 17 71 1.6 4.8 0.00 0.00 0.00 64 1018.4
20260506163150 18 212 3.2 4.8 0.00 0.00 0.00 63 1018.7
20260506162647 18 168 1.6 3.2 0.00 0.00 0.00 61 1018.6
20260506162144 18 79 3.2 3.2 0.00 0.00 0.00 63 1018.8
20260506161641 17 227 1.6 4.8 0.00 0.00 0.00 67 1018.5
20260506161138 17 40 1.6 6.4 0.00 0.00 0.00 65 1018.5
20260506160636 17 135 0.0 1.6 0.00 0.00 0.00 66 1018.5
20260506160132 17 135 1.6 4.8 0.00 0.00 0.00 68 1018.3
20260506155631 17 134 0.0 3.2 0.00 0.00 0.00 69 1018.5
20260506155128 16 134 1.6 3.2 0.00 0.00 0.00 70 1018.4
20260506153230 16 52 6.4 11.3 0.00 0.00 0.00 72 1018.5
20260506152727 16 130 3.2 4.8 0.00 0.00 0.00 73 1018.3
20260506152224 16 85 0.0 3.2 0.00 0.00 0.00 72 1018.5
20260506151724 16 84 0.0 3.2 0.00 0.00 0.00 72 1018.4
20260506151219 16 60 3.2 4.8 0.00 0.00 0.00 73 1018.4
20260506150716 15 81 1.6 4.8 0.00 0.00 0.00 76 1018.4
20260506150213 15 94 1.6 3.2 0.00 0.00 0.00 77 1018.7
20260506145710 15 94 0.0 3.2 0.00 0.00 0.00 77 1018.5
20260506145206 15 100 3.2 3.2 0.00 0.00 0.00 77 1018.5
20260506144704 14 89 0.0 3.2 0.00 0.00 0.00 79 1018.5
20260506144200 15 59 3.2 4.8 0.00 0.00 0.00 76 1018.4
20260506143658 15 112 0.0 3.2 0.00 0.00 0.00 77 1018.1
20260506143156 13 121 0.0 1.6 0.00 0.00 0.00 79 1018.4
20260506142654 13 119 0.0 1.6 0.00 0.00 0.00 80 1018.3
20260506142152 13 106 0.0 1.6 0.00 0.00 0.00 82 1018.3
20260506141649 12 108 1.6 1.6 0.00 0.00 0.00 84 1018.2
20260506141148 11 129 0.0 3.2 0.00 0.00 0.00 87 1018.2
20260506140644 11 59 1.6 3.2 0.00 0.00 0.00 88 1018.3
20260506140142 11 92 3.2 3.2 0.00 0.00 0.00 88 1018.2
20260506135639 11 144 0.0 4.8 0.00 0.00 0.00 90 1018.2
20260506135135 11 72 1.6 4.8 0.00 0.00 0.00 91 1018.2
20260506134632 10 122 0.0 4.8 0.00 0.00 0.00 93 1018.1
20260506134127 10 114 1.6 4.8 0.00 0.00 0.00 94 1018.1
20260506133625 10 115 0.0 3.2 0.00 0.00 0.00 94 1018.0